Time,TemperatureF,DewpointF,PressureIn,WindDirection,WindDirectionDegrees,WindSpeedMPH,WindSpeedGustMPH,Humidity,HourlyPrecipIn,Conditions,Clouds,dailyrainin,SoftwareType,DateUTC
2013-05-28 00:00:00,62.4,57.8,30.13,South,180,0.0,0.0,85,0.00,,,0.00,Wunderground v.1.15,2013-05-28 04:00:00,
2013-05-28 00:05:00,62.1,57.5,30.13,South,180,0.0,0.0,85,0.00,,,0.00,Wunderground v.1.15,2013-05-28 04:05:00,
2013-05-28 00:10:00,61.6,57.4,30.13,South,180,0.0,0.0,86,0.00,,,0.00,Wunderground v.1.15,2013-05-28 04:10:00,
2013-05-28 00:20:00,61.0,57.4,30.13,South,180,0.0,0.0,88,0.00,,,0.00,Wunderground v.1.15,2013-05-28 04:20:00,
2013-05-28 00:25:00,60.7,57.1,30.13,South,180,0.0,0.0,88,0.00,,,0.00,Wunderground v.1.15,2013-05-28 04:25:00,
2013-05-28 00:30:00,60.5,57.2,30.13,South,180,0.0,0.0,89,0.00,,,0.00,Wunderground v.1.15,2013-05-28 04:30:00,
2013-05-28 00:40:00,60.2,57.3,30.13,South,180,0.0,0.0,90,0.00,,,0.00,Wunderground v.1.15,2013-05-28 04:40:00,
2013-05-28 00:45:00,60.2,57.3,30.13,South,180,0.0,0.0,90,0.00,,,0.00,Wunderground v.1.15,2013-05-28 04:45:00,
2013-05-28 00:50:00,60.1,57.5,30.13,South,180,0.0,0.0,91,0.00,,,0.00,Wunderground v.1.15,2013-05-28 04:50:00,
2013-05-28 01:00:00,59.6,57.0,30.13,South,180,0.0,0.0,91,0.00,,,0.00,Wunderground v.1.15,2013-05-28 05:00:00,
2013-05-28 01:10:00,59.2,56.6,30.13,South,180,0.0,0.0,91,0.00,,,0.00,Wunderground v.1.15,2013-05-28 05:10:00,
2013-05-28 01:20:00,58.7,56.1,30.12,South,180,0.0,0.0,91,0.00,,,0.00,Wunderground v.1.15,2013-05-28 05:20:00,
2013-05-28 01:30:00,58.3,56.0,30.12,South,180,0.0,0.0,92,0.00,,,0.00,Wunderground v.1.15,2013-05-28 05:30:00,
2013-05-28 01:40:00,58.0,56.0,30.11,South,180,0.0,0.0,93,0.00,,,0.00,Wunderground v.1.15,2013-05-28 05:40:00,
2013-05-28 01:45:00,58.0,56.3,30.11,South,180,0.0,0.0,94,0.00,,,0.00,Wunderground v.1.15,2013-05-28 05:45:00,
2013-05-28 01:55:00,58.1,56.4,30.10,South,180,0.0,0.0,94,0.00,,,0.00,Wunderground v.1.15,2013-05-28 05:55:00,
2013-05-28 02:05:00,58.0,56.6,30.10,South,180,0.0,0.0,95,0.00,,,0.00,Wunderground v.1.15,2013-05-28 06:05:00,
2013-05-28 02:15:00,57.6,56.2,30.10,South,180,0.0,0.0,95,0.00,,,0.00,Wunderground v.1.15,2013-05-28 06:15:00,
2013-05-28 02:25:00,57.3,55.9,30.10,South,180,0.0,0.0,95,0.00,,,0.00,Wunderground v.1.15,2013-05-28 06:25:00,
2013-05-28 02:35:00,57.0,55.6,30.10,South,180,0.0,0.0,95,0.00,,,0.00,Wunderground v.1.15,2013-05-28 06:35:00,
2013-05-28 02:45:00,56.7,55.3,30.10,South,180,0.0,0.0,95,0.00,,,0.00,Wunderground v.1.15,2013-05-28 06:45:00,
2013-05-28 02:50:00,56.6,55.2,30.09,South,180,0.0,0.0,95,0.00,,,0.00,Wunderground v.1.15,2013-05-28 06:50:00,
2013-05-28 03:00:00,56.3,54.9,30.09,South,180,0.0,0.0,95,0.00,,,0.00,Wunderground v.1.15,2013-05-28 07:00:00,
2013-05-28 03:10:00,56.0,54.6,30.09,South,180,0.0,0.0,95,0.00,,,0.00,Wunderground v.1.15,2013-05-28 07:10:00,
2013-05-28 03:20:00,55.7,54.6,30.09,South,180,0.0,0.0,96,0.00,,,0.00,Wunderground v.1.15,2013-05-28 07:20:00,
2013-05-28 03:30:00,55.7,54.6,30.09,South,180,0.0,0.0,96,0.00,,,0.00,Wunderground v.1.15,2013-05-28 07:30:00,
2013-05-28 03:40:00,55.4,54.3,30.09,South,180,0.0,0.0,96,0.00,,,0.00,Wunderground v.1.15,2013-05-28 07:40:00,
2013-05-28 03:50:00,55.3,54.2,30.08,South,180,0.0,0.0,96,0.00,,,0.00,Wunderground v.1.15,2013-05-28 07:50:00,
2013-05-28 04:00:00,55.0,54.2,30.08,South,180,0.0,0.0,97,0.00,,,0.00,Wunderground v.1.15,2013-05-28 08:00:00,
2013-05-28 04:10:00,54.8,54.0,30.08,South,180,0.0,0.0,97,0.00,,,0.00,Wunderground v.1.15,2013-05-28 08:10:00,
2013-05-28 04:20:00,54.7,53.9,30.08,South,180,0.0,0.0,97,0.00,,,0.00,Wunderground v.1.15,2013-05-28 08:20:00,
2013-05-28 04:25:00,54.5,53.7,30.08,South,180,0.0,0.0,97,0.00,,,0.00,Wunderground v.1.15,2013-05-28 08:25:00,
2013-05-28 04:30:00,54.4,53.6,30.08,South,180,0.0,0.0,97,0.00,,,0.00,Wunderground v.1.15,2013-05-28 08:30:00,
2013-05-28 04:40:00,54.5,53.7,30.09,South,180,0.0,0.0,97,0.00,,,0.00,Wunderground v.1.15,2013-05-28 08:40:00,
2013-05-28 04:50:00,54.2,53.4,30.09,South,180,0.0,0.0,97,0.00,,,0.00,Wunderground v.1.15,2013-05-28 08:50:00,
2013-05-28 05:00:00,54.1,53.3,30.10,South,180,0.0,0.0,97,0.00,,,0.00,Wunderground v.1.15,2013-05-28 09:00:00,
2013-05-28 05:05:00,53.8,53.0,30.10,South,180,0.0,0.0,97,0.00,,,0.00,Wunderground v.1.15,2013-05-28 09:05:00,
2013-05-28 05:15:00,53.5,52.7,30.10,South,180,0.0,0.0,97,0.00,,,0.00,Wunderground v.1.15,2013-05-28 09:15:00,
2013-05-28 05:25:00,53.2,52.4,30.11,South,180,0.0,0.0,97,0.00,,,0.00,Wunderground v.1.15,2013-05-28 09:25:00,
2013-05-28 05:30:00,53.1,52.3,30.11,South,180,0.0,0.0,97,0.00,,,0.00,Wunderground v.1.15,2013-05-28 09:30:00,
2013-05-28 05:40:00,53.1,52.3,30.11,South,180,0.0,0.0,97,0.00,,,0.00,Wunderground v.1.15,2013-05-28 09:40:00,
2013-05-28 05:50:00,53.3,52.8,30.12,South,180,0.0,0.0,98,0.00,,,0.00,Wunderground v.1.15,2013-05-28 09:50:00,
2013-05-28 06:00:00,53.5,52.9,30.13,South,180,0.0,0.0,98,0.00,,,0.00,Wunderground v.1.15,2013-05-28 10:00:00,
2013-05-28 06:10:00,53.3,52.8,30.13,South,180,0.0,0.0,98,0.00,,,0.00,Wunderground v.1.15,2013-05-28 10:10:00,
2013-05-28 06:15:00,53.1,52.6,30.13,South,180,0.0,0.0,98,0.00,,,0.00,Wunderground v.1.15,2013-05-28 10:15:00,
2013-05-28 06:25:00,52.9,52.4,30.13,South,180,0.0,0.0,98,0.00,,,0.00,Wunderground v.1.15,2013-05-28 10:25:00,
2013-05-28 06:30:00,52.9,52.4,30.13,South,180,0.0,0.0,98,0.00,,,0.00,Wunderground v.1.15,2013-05-28 10:30:00,
2013-05-28 06:35:00,52.9,52.4,30.13,South,180,0.0,0.0,98,0.00,,,0.00,Wunderground v.1.15,2013-05-28 10:35:00,
2013-05-28 06:45:00,53.2,52.7,30.14,South,180,0.0,0.0,98,0.00,,,0.00,Wunderground v.1.15,2013-05-28 10:45:00,
2013-05-28 06:55:00,53.3,53.0,30.14,South,180,0.0,0.0,99,0.00,,,0.00,Wunderground v.1.15,2013-05-28 10:55:00,
2013-05-28 07:05:00,54.1,53.8,30.14,South,180,0.0,0.0,99,0.00,,,0.00,Wunderground v.1.15,2013-05-28 11:05:00,
2013-05-28 07:10:00,54.5,54.2,30.14,South,180,0.0,0.0,99,0.00,,,0.00,Wunderground v.1.15,2013-05-28 11:10:00,
2013-05-28 07:20:00,55.6,55.3,30.15,South,180,0.0,0.0,99,0.00,,,0.00,Wunderground v.1.15,2013-05-28 11:20:00,
2013-05-28 07:30:00,56.0,55.7,30.15,South,180,0.0,0.0,99,0.00,,,0.00,Wunderground v.1.15,2013-05-28 11:30:00,
2013-05-28 07:35:00,56.6,56.3,30.15,South,180,0.0,0.0,99,0.00,,,0.00,Wunderground v.1.15,2013-05-28 11:35:00,
2013-05-28 07:40:00,57.0,56.4,30.15,South,180,0.0,0.0,98,0.00,,,0.00,Wunderground v.1.15,2013-05-28 11:40:00,
2013-05-28 07:50:00,57.2,56.1,30.16,South,180,0.0,0.0,96,0.00,,,0.00,Wunderground v.1.15,2013-05-28 11:50:00,
2013-05-28 08:00:00,58.1,57.0,30.15,South,180,0.0,0.0,96,0.00,,,0.00,Wunderground v.1.15,2013-05-28 12:00:00,
2013-05-28 08:10:00,59.6,58.2,30.16,South,180,0.0,0.0,95,0.00,,,0.00,Wunderground v.1.15,2013-05-28 12:10:00,
2013-05-28 08:20:00,60.7,58.1,30.16,South,180,0.0,0.0,91,0.00,,,0.00,Wunderground v.1.15,2013-05-28 12:20:00,
2013-05-28 08:25:00,61.2,58.2,30.16,South,180,0.0,0.0,90,0.00,,,0.00,Wunderground v.1.15,2013-05-28 12:25:00,
2013-05-28 08:30:00,61.8,58.8,30.15,South,179,0.0,0.0,90,0.00,,,0.00,Wunderground v.1.15,2013-05-28 12:30:00,
2013-05-28 08:40:00,62.7,58.8,30.16,South,179,0.0,0.0,87,0.00,,,0.00,Wunderground v.1.15,2013-05-28 12:40:00,
2013-05-28 08:50:00,63.4,59.8,30.16,South,179,0.0,0.0,88,0.00,,,0.00,Wunderground v.1.15,2013-05-28 12:50:00,
2013-05-28 09:00:00,64.5,59.2,30.16,South,179,0.0,0.0,83,0.00,,,0.00,Wunderground v.1.15,2013-05-28 13:00:00,
2013-05-28 09:10:00,65.6,59.6,30.17,South,179,0.0,0.0,81,0.00,,,0.00,Wunderground v.1.15,2013-05-28 13:10:00,
2013-05-28 09:15:00,66.3,60.3,30.16,South,179,0.0,0.0,81,0.00,,,0.00,Wunderground v.1.15,2013-05-28 13:15:00,
2013-05-28 09:20:00,66.9,59.8,30.16,South,179,0.0,0.0,78,0.00,,,0.00,Wunderground v.1.15,2013-05-28 13:20:00,
2013-05-28 09:25:00,67.6,60.1,30.17,South,179,0.0,0.0,77,0.00,,,0.00,Wunderground v.1.15,2013-05-28 13:25:00,
2013-05-28 09:30:00,68.3,60.8,30.17,West,274,0.0,0.0,77,0.00,,,0.00,Wunderground v.1.15,2013-05-28 13:30:00,
2013-05-28 09:35:00,68.9,61.0,30.17,West,273,0.0,0.0,76,0.00,,,0.00,Wunderground v.1.15,2013-05-28 13:35:00,
2013-05-28 09:40:00,69.6,60.6,30.16,NW,324,0.0,0.0,73,0.00,,,0.00,Wunderground v.1.15,2013-05-28 13:40:00,
2013-05-28 09:50:00,70.3,60.8,30.16,SW,221,0.0,0.0,72,0.00,,,0.00,Wunderground v.1.15,2013-05-28 13:50:00,
2013-05-28 10:00:00,70.9,59.8,30.17,SW,222,0.0,0.0,68,0.00,,,0.00,Wunderground v.1.15,2013-05-28 14:00:00,
2013-05-28 10:10:00,70.9,59.4,30.17,SW,222,0.0,0.0,67,0.00,,,0.00,Wunderground v.1.15,2013-05-28 14:10:00,
2013-05-28 10:20:00,71.8,60.2,30.16,SW,223,0.0,0.0,67,0.00,,,0.00,Wunderground v.1.15,2013-05-28 14:20:00,
2013-05-28 10:30:00,72.0,60.4,30.16,SW,235,1.0,1.0,67,0.00,,,0.00,Wunderground v.1.15,2013-05-28 14:30:00,
2013-05-28 10:40:00,72.0,60.0,30.16,WSW,241,0.0,0.0,66,0.00,,,0.00,Wunderground v.1.15,2013-05-28 14:40:00,
2013-05-28 10:45:00,72.3,60.7,30.16,WSW,241,0.0,0.0,67,0.00,,,0.00,Wunderground v.1.15,2013-05-28 14:45:00,
2013-05-28 10:55:00,72.8,61.2,30.16,SSW,199,1.0,2.0,67,0.00,,,0.00,Wunderground v.1.15,2013-05-28 14:55:00,
2013-05-28 11:00:00,73.5,61.9,30.16,SSW,210,2.0,5.0,67,0.00,,,0.00,Wunderground v.1.15,2013-05-28 15:00:00,
2013-05-28 11:10:00,74.0,61.9,30.16,SSW,192,2.0,6.0,66,0.00,,,0.00,Wunderground v.1.15,2013-05-28 15:10:00,
2013-05-28 11:25:00,74.4,60.1,30.16,SW,215,2.0,2.0,61,0.00,,,0.00,Wunderground v.1.15,2013-05-28 15:25:00,
2013-05-28 11:30:00,74.6,62.5,30.15,SSW,199,2.0,2.0,66,0.00,,,0.00,Wunderground v.1.15,2013-05-28 15:30:00,
2013-05-28 11:40:00,75.1,61.6,30.16,SW,216,5.0,6.0,63,0.00,,,0.00,Wunderground v.1.15,2013-05-28 15:40:00,
2013-05-28 11:50:00,75.1,60.3,30.15,SSW,192,5.0,6.0,60,0.00,,,0.00,Wunderground v.1.15,2013-05-28 15:50:00,
2013-05-28 12:00:00,75.6,62.6,30.15,South,190,2.0,4.0,64,0.00,,,0.00,Wunderground v.1.15,2013-05-28 16:00:00,
2013-05-28 12:05:00,75.6,62.1,30.15,South,171,2.0,4.0,63,0.00,,,0.00,Wunderground v.1.15,2013-05-28 16:05:00,
2013-05-28 12:15:00,75.8,62.8,30.14,SSW,210,3.0,6.0,64,0.00,,,0.00,Wunderground v.1.15,2013-05-28 16:15:00,
2013-05-28 12:25:00,76.1,62.1,30.14,SSW,208,4.0,6.0,62,0.00,,,0.00,Wunderground v.1.15,2013-05-28 16:25:00,
2013-05-28 12:30:00,76.3,62.3,30.14,South,190,4.0,4.0,62,0.00,,,0.00,Wunderground v.1.15,2013-05-28 16:30:00,
2013-05-28 12:40:00,76.3,62.8,30.14,SW,221,4.0,4.0,63,0.00,,,0.00,Wunderground v.1.15,2013-05-28 16:40:00,
2013-05-28 12:45:00,75.8,61.8,30.14,SSE,167,3.0,4.0,62,0.00,,,0.00,Wunderground v.1.15,2013-05-28 16:45:00,
2013-05-28 12:50:00,75.8,61.4,30.14,SW,236,4.0,8.0,61,0.00,,,0.00,Wunderground v.1.15,2013-05-28 16:50:00,
2013-05-28 13:00:00,77.0,62.5,30.14,South,172,8.0,8.0,61,0.00,,,0.00,Wunderground v.1.15,2013-05-28 17:00:00,
2013-05-28 13:10:00,77.2,61.3,30.13,SSW,200,8.0,9.0,58,0.00,,,0.00,Wunderground v.1.15,2013-05-28 17:10:00,
2013-05-28 13:15:00,77.4,61.9,30.13,SW,223,7.0,9.0,59,0.00,,,0.00,Wunderground v.1.15,2013-05-28 17:15:00,
2013-05-28 13:20:00,77.4,61.0,30.13,South,186,6.0,6.0,57,0.00,,,0.00,Wunderground v.1.15,2013-05-28 17:20:00,
2013-05-28 13:30:00,77.6,61.7,30.13,SW,216,6.0,9.0,58,0.00,,,0.00,Wunderground v.1.15,2013-05-28 17:30:00,
2013-05-28 13:35:00,77.7,59.7,30.12,SSW,205,7.0,9.0,54,0.00,,,0.00,Wunderground v.1.15,2013-05-28 17:35:00,
2013-05-28 13:40:00,77.9,61.9,30.12,SSW,195,7.0,7.0,58,0.00,,,0.00,Wunderground v.1.15,2013-05-28 17:40:00,
2013-05-28 13:50:00,78.3,60.3,30.11,SSW,203,5.0,5.0,54,0.00,,,0.00,Wunderground v.1.15,2013-05-28 17:50:00,
2013-05-28 14:00:00,79.0,63.0,30.11,South,188,3.0,3.0,58,0.00,,,0.00,Wunderground v.1.15,2013-05-28 18:00:00,
2013-05-28 14:10:00,78.5,59.4,30.11,SSW,202,7.0,7.0,52,0.00,,,0.00,Wunderground v.1.15,2013-05-28 18:10:00,
2013-05-28 14:20:00,79.0,62.0,30.10,South,186,5.0,5.0,56,0.00,,,0.00,Wunderground v.1.15,2013-05-28 18:20:00,
2013-05-28 14:30:00,79.0,61.5,30.10,South,189,2.0,4.0,55,0.00,,,0.00,Wunderground v.1.15,2013-05-28 18:30:00,
2013-05-28 14:35:00,78.8,62.3,30.09,South,178,1.0,4.0,57,0.00,,,0.00,Wunderground v.1.15,2013-05-28 18:35:00,
2013-05-28 14:40:00,79.0,61.5,30.09,SSW,194,1.0,1.0,55,0.00,,,0.00,Wunderground v.1.15,2013-05-28 18:40:00,
2013-05-28 14:50:00,78.3,59.8,30.09,SW,231,4.0,10.0,53,0.00,,,0.00,Wunderground v.1.15,2013-05-28 18:50:00,
2013-05-28 14:55:00,78.5,61.0,30.09,SSW,193,7.0,10.0,55,0.00,,,0.00,Wunderground v.1.15,2013-05-28 18:55:00,
2013-05-28 15:00:00,79.0,60.4,30.09,South,172,5.0,5.0,53,0.00,,,0.00,Wunderground v.1.15,2013-05-28 19:00:00,
2013-05-28 15:10:00,79.8,60.6,30.09,SW,221,2.0,2.0,52,0.00,,,0.00,Wunderground v.1.15,2013-05-28 19:10:00,
2013-05-28 15:15:00,79.9,61.8,30.09,SSW,202,2.0,4.0,54,0.00,,,0.00,Wunderground v.1.15,2013-05-28 19:15:00,
2013-05-28 15:25:00,79.2,61.1,30.09,SSW,196,5.0,9.0,54,0.00,,,0.00,Wunderground v.1.15,2013-05-28 19:25:00,
2013-05-28 15:35:00,79.8,60.1,30.08,SSW,194,2.0,5.0,51,0.00,,,0.00,Wunderground v.1.15,2013-05-28 19:35:00,
2013-05-28 15:40:00,79.8,59.5,30.08,SW,229,4.0,4.0,50,0.00,,,0.00,Wunderground v.1.15,2013-05-28 19:40:00,
2013-05-28 15:50:00,80.3,60.5,30.08,SSW,209,4.0,4.0,51,0.00,,,0.00,Wunderground v.1.15,2013-05-28 19:50:00,
2013-05-28 16:00:00,80.9,59.9,30.08,South,188,4.0,6.0,49,0.00,,,0.00,Wunderground v.1.15,2013-05-28 20:00:00,
2013-05-28 16:10:00,81.1,60.7,30.08,SSW,212,5.0,8.0,50,0.00,,,0.00,Wunderground v.1.15,2013-05-28 20:10:00,
2013-05-28 16:20:00,80.5,59.6,30.08,SW,220,5.0,5.0,49,0.00,,,0.00,Wunderground v.1.15,2013-05-28 20:20:00,
2013-05-28 16:30:00,80.1,58.6,30.07,SW,224,4.0,4.0,48,0.00,,,0.00,Wunderground v.1.15,2013-05-28 20:30:00,
2013-05-28 16:35:00,80.1,59.8,30.08,WSW,248,4.0,5.0,50,0.00,,,0.00,Wunderground v.1.15,2013-05-28 20:35:00,
2013-05-28 16:45:00,80.5,58.4,30.08,SW,225,5.0,5.0,47,0.00,,,0.00,Wunderground v.1.15,2013-05-28 20:45:00,
2013-05-28 16:55:00,80.7,58.6,30.07,South,183,1.0,6.0,47,0.00,,,0.00,Wunderground v.1.15,2013-05-28 20:55:00,
2013-05-28 17:01:00,80.3,59.4,30.07,SSW,211,2.0,2.0,49,0.00,,,0.00,Wunderground v.1.15,2013-05-28 21:01:00,
2013-05-28 17:10:00,80.1,60.3,30.07,SW,232,2.0,4.0,51,0.00,,,0.00,Wunderground v.1.15,2013-05-28 21:10:00,
2013-05-28 17:20:00,80.3,59.4,30.07,SW,225,1.0,5.0,49,0.00,,,0.00,Wunderground v.1.15,2013-05-28 21:20:00,
2013-05-28 17:25:00,80.3,60.0,30.07,SSW,194,1.0,2.0,50,0.00,,,0.00,Wunderground v.1.15,2013-05-28 21:25:00,
2013-05-28 17:30:00,80.5,59.6,30.07,SSW,200,1.0,2.0,49,0.00,,,0.00,Wunderground v.1.15,2013-05-28 21:30:00,
2013-05-28 17:40:00,80.3,59.4,30.07,SSW,200,3.0,3.0,49,0.00,,,0.00,Wunderground v.1.15,2013-05-28 21:40:00,
2013-05-28 17:50:00,80.3,58.8,30.06,SW,234,1.0,3.0,48,0.00,,,0.00,Wunderground v.1.15,2013-05-28 21:50:00,
2013-05-28 18:00:00,80.1,60.3,30.06,South,186,0.0,0.0,51,0.00,,,0.00,Wunderground v.1.15,2013-05-28 22:00:00,
2013-05-28 18:10:00,79.9,60.7,30.06,SW,215,1.0,1.0,52,0.00,,,0.00,Wunderground v.1.15,2013-05-28 22:10:00,
2013-05-28 18:20:00,79.4,59.7,30.06,SSW,194,1.0,1.0,51,0.00,,,0.00,Wunderground v.1.15,2013-05-28 22:20:00,
2013-05-28 18:30:00,79.8,58.4,30.06,SSW,196,1.0,1.0,48,0.00,,,0.00,Wunderground v.1.15,2013-05-28 22:30:00,
2013-05-28 18:40:00,80.3,60.5,30.06,SSW,198,1.0,1.0,51,0.00,,,0.00,Wunderground v.1.15,2013-05-28 22:40:00,
2013-05-28 18:50:00,79.8,60.1,30.06,SSW,203,0.0,0.0,51,0.00,,,0.00,Wunderground v.1.15,2013-05-28 22:50:00,
2013-05-28 19:00:00,79.9,59.6,30.05,SE,136,0.0,0.0,50,0.00,,,0.00,Wunderground v.1.15,2013-05-28 23:00:00,
2013-05-28 19:10:00,79.8,60.6,30.05,SW,218,0.0,0.0,52,0.00,,,0.00,Wunderground v.1.15,2013-05-28 23:10:00,
2013-05-28 19:20:00,78.8,59.7,30.05,SSW,209,0.0,0.0,52,0.00,,,0.00,Wunderground v.1.15,2013-05-28 23:20:00,
2013-05-28 19:30:00,76.3,59.9,30.05,South,181,2.0,2.0,57,0.00,,,0.00,Wunderground v.1.15,2013-05-28 23:30:00,
2013-05-28 19:40:00,74.7,59.9,30.05,South,175,0.0,0.0,60,0.00,,,0.00,Wunderground v.1.15,2013-05-28 23:40:00,
2013-05-28 19:50:00,74.4,60.5,30.06,South,171,0.0,0.0,62,0.00,,,0.00,Wunderground v.1.15,2013-05-28 23:50:00,
2013-05-28 20:00:00,73.7,60.3,30.06,South,171,0.0,0.0,63,0.00,,,0.00,Wunderground v.1.15,2013-05-29 00:00:00,
2013-05-28 20:10:00,73.3,60.4,30.06,SSE,167,1.0,1.0,64,0.00,,,0.00,Wunderground v.1.15,2013-05-29 00:10:00,
2013-05-28 20:20:00,73.0,60.5,30.06,SSE,167,1.0,1.0,65,0.00,,,0.00,Wunderground v.1.15,2013-05-29 00:20:00,
2013-05-28 20:30:00,72.5,60.5,30.05,SSE,167,0.0,0.0,66,0.00,,,0.00,Wunderground v.1.15,2013-05-29 00:30:00,
2013-05-28 20:40:00,72.0,60.4,30.05,SSE,167,0.0,0.0,67,0.00,,,0.00,Wunderground v.1.15,2013-05-29 00:40:00,
2013-05-28 20:50:00,71.3,60.2,30.05,SSE,167,0.0,0.0,68,0.00,,,0.00,Wunderground v.1.15,2013-05-29 00:50:00,
2013-05-28 21:00:00,70.9,60.2,30.05,SSE,167,0.0,0.0,69,0.00,,,0.00,Wunderground v.1.15,2013-05-29 01:00:00,
2013-05-28 21:10:00,70.8,60.1,30.05,SSE,167,0.0,0.0,69,0.00,,,0.00,Wunderground v.1.15,2013-05-29 01:10:00,
2013-05-28 21:20:00,70.4,60.1,30.06,SSE,167,0.0,0.0,70,0.00,,,0.00,Wunderground v.1.15,2013-05-29 01:20:00,
2013-05-28 21:30:00,70.3,60.1,30.06,South,177,0.0,0.0,70,0.00,,,0.00,Wunderground v.1.15,2013-05-29 01:30:00,
2013-05-28 21:40:00,69.9,59.7,30.07,SSE,162,0.0,0.0,70,0.00,,,0.00,Wunderground v.1.15,2013-05-29 01:40:00,
2013-05-28 21:45:00,69.8,60.0,30.07,SSE,162,0.0,0.0,71,0.00,,,0.00,Wunderground v.1.15,2013-05-29 01:45:00,
2013-05-28 21:50:00,69.4,59.6,30.07,SSE,163,0.0,0.0,71,0.00,,,0.00,Wunderground v.1.15,2013-05-29 01:50:00,
2013-05-28 22:00:00,68.8,59.4,30.08,SSE,163,0.0,0.0,72,0.00,,,0.00,Wunderground v.1.15,2013-05-29 02:00:00,
2013-05-28 22:10:00,68.3,59.7,30.08,SSE,163,0.0,0.0,74,0.00,,,0.00,Wunderground v.1.15,2013-05-29 02:10:00,
2013-05-28 22:15:00,67.9,59.7,30.08,SSE,163,0.0,0.0,75,0.00,,,0.00,Wunderground v.1.15,2013-05-29 02:15:00,
2013-05-28 22:20:00,67.4,59.2,30.08,SSE,163,0.0,0.0,75,0.00,,,0.00,Wunderground v.1.15,2013-05-29 02:20:00,
2013-05-28 22:30:00,66.8,59.0,30.08,SSE,163,0.0,0.0,76,0.00,,,0.00,Wunderground v.1.15,2013-05-29 02:30:00,
2013-05-28 22:35:00,66.4,59.0,30.08,SSE,163,0.0,0.0,77,0.00,,,0.00,Wunderground v.1.15,2013-05-29 02:35:00,
2013-05-28 22:40:00,66.1,59.0,30.08,SSE,163,0.0,0.0,78,0.00,,,0.00,Wunderground v.1.15,2013-05-29 02:40:00,
2013-05-28 22:50:00,65.8,58.7,30.08,SSE,163,0.0,0.0,78,0.00,,,0.00,Wunderground v.1.15,2013-05-29 02:50:00,
2013-05-28 23:00:00,66.0,58.9,30.08,SSE,163,0.0,0.0,78,0.00,,,0.00,Wunderground v.1.15,2013-05-29 03:00:00,
2013-05-28 23:05:00,66.4,59.0,30.09,SSE,164,0.0,0.0,77,0.00,,,0.00,Wunderground v.1.15,2013-05-29 03:05:00,
2013-05-28 23:10:00,66.6,58.8,30.09,SSE,164,0.0,0.0,76,0.00,,,0.00,Wunderground v.1.15,2013-05-29 03:10:00,
2013-05-28 23:20:00,66.3,58.9,30.09,SSE,164,0.0,0.0,77,0.00,,,0.00,Wunderground v.1.15,2013-05-29 03:20:00,
2013-05-28 23:30:00,65.8,58.7,30.09,SSE,164,0.0,0.0,78,0.00,,,0.00,Wunderground v.1.15,2013-05-29 03:30:00,
2013-05-28 23:40:00,65.6,58.9,30.09,SSE,164,0.0,0.0,79,0.00,,,0.00,Wunderground v.1.15,2013-05-29 03:40:00,
2013-05-28 23:50:00,65.2,58.5,30.09,SSE,164,0.0,0.0,79,0.00,,,0.00,Wunderground v.1.15,2013-05-29 03:50:00,
2013-05-28 23:55:00,65.2,58.5,30.08,SSE,164,0.0,0.0,79,0.00,,,0.00,Wunderground v.1.15,2013-05-29 03:55:00,